sat.trackr.live / text

‹ back to catalog

STARLINK-5872

NORAD 57232 · 2023-094Q

PAYLOAD ACTIVE UNKNOWN

§ Identity

Operator
Country
US
Launch date
2023-07-07
Launch site
AFWTR
Launch vehicle
Mass (kg)
RCS (m²)

Purposes: comms

External: N2YO · Heavens-Above · Gunter

§ Orbital elements

Epoch: 2026-09-20T14:27:13.984416Z

Period
94.27 min
Inclination
43.0031°
Eccentricity
0.0001179
Mean motion
15.27581640 rev/d
Perigee alt
482.2 km
Apogee alt
483.9 km
Semi-major
6,861.2 km
B*
1.7704e-5
RAAN
10.0481°
Arg perigee
271.3364°
Mean anomaly
88.7353°
Rev number
17,758

§ Raw data

STARLINK-58721 57232U 23094Q   26263.60224519  .00000225  00000+0  17704-4 0  99962 57232  43.0031  10.0481 0001179 271.3364  88.7353 15.27581640177581

JSON: /api/v1/satellites/57232 · /tle

For live sub-satellite position, see the globe view (requires WebGL).

§ Visibility from observer

Set your observer location to see the next 7 days of passes ≥ 10°. The values pass through the URL so the page stays shareable.

No JS? Fill the form by hand. The geolocation button needs JavaScript.